Weather History for Makassar, Indonesia

Change the Weather History Date:

Wednesday, January 22, 2014

  Actual Average Record
Temperature  
Mean Temperature 80 °F -  
Max Temperature 86 °F - - ()
Min Temperature 75 °F - - ()
Cooling Degree Days 16    
Growing Degree Days 30 (Base 50)    
Moisture  
Dew Point 75 °F    
Average Humidity 91    
Maximum Humidity 100    
Minimum Humidity 70    
Precipitation  
Precipitation 0.28 in - - ()
Sea Level Pressure  
Sea Level Pressure 29.84 in    
Wind  
Wind Speed 5 mph ()    
Max Wind Speed 24 mph    
Max Gust Speed 38 mph    
Visibility 4.2 miles    
Events Rain , Thunderstorm    
T = Trace of Precipitation, MM = Missing Value Source: Averaged Metar Reports

Daily Weather History Graph

Daily Weather History Graph

Search for Another Location

Airport:

Trip Planner

Search our weather history database for the weather conditions in past years. The results will help you decide how hot, cold, wet, or windy it might be!

Date:

Astronomy

Jan. 22, 2014 Rise Set
Actual Time 6:02 AM CIT 6:24 PM CIT
Civil Twilight 5:40 AM CIT 6:46 PM CIT
Nautical Twilight 5:14 AM CIT 7:12 PM CIT
Astronomical Twilight 4:48 AM CIT 7:37 PM CIT
Moon 10:39 PM CIT 10:19 AM CIT
Length of Visible Light 13h 05m
Length of Day
12h 21m
Waning Gibbous, 70% of the Moon is Illuminated
Jan 22
Waning Gibbous
Jan 24
Last Quarter
Jan 31
New
Feb 7
First Quarter
Feb 15
Full

Hourly Weather History & Observations

Time (CIT) Temp. Heat Index Dew Point Humidity Pressure Visibility Wind Dir Wind Speed Gust Speed Precip Events Conditions
12:00 AM 77.0 °F - 77.0 °F 100% 29.83 in 4.3 mi SE 2.3 mph - N/A Thunderstorm Thunderstorm
12:30 AM 77.0 °F - 77.0 °F 100% 29.83 in 4.3 mi ENE 1.2 mph - N/A Thunderstorm Thunderstorm
1:00 AM 78.8 °F - 77.0 °F 94% 29.80 in 4.3 mi North 6.9 mph - N/A   Scattered Clouds
1:30 AM 78.8 °F - 77.0 °F 94% 29.80 in 4.3 mi NE 1.2 mph - N/A   Partly Cloudy
2:00 AM 78 °F - 76 °F 92% 29.82 in 4 mi NE 2.3 mph - -   Partly Cloudy
2:00 AM 78.8 °F - 77.0 °F 94% 29.80 in 4.3 mi NE 4.6 mph - N/A   Partly Cloudy
2:30 AM 77.0 °F - 75.2 °F 94% 29.80 in 4.3 mi ENE 6.9 mph - N/A   Partly Cloudy
3:00 AM 77.0 °F - 75.2 °F 94% 29.80 in 4.3 mi East 4.6 mph - N/A   Partly Cloudy
3:23 AM 77.0 °F - 75.2 °F 94% 29.80 in 2.5 mi NE 3.5 mph - N/A Rain Rain
3:30 AM 77.0 °F - 75.2 °F 94% 29.80 in 3.1 mi North 3.5 mph - N/A Rain Light Rain
4:00 AM 75.2 °F - 75.2 °F 100% 29.80 in 3.1 mi NE 6.9 mph - N/A Rain Light Rain
4:23 AM 75.2 °F - 75.2 °F 100% 29.80 in 3.1 mi NNE 5.8 mph - N/A Rain , Thunderstorm Light Thunderstorms and Rain
4:30 AM 75.2 °F - 75.2 °F 100% 29.80 in 3.1 mi North 4.6 mph - N/A Rain , Thunderstorm Light Thunderstorms and Rain
5:00 AM 76 °F - 75 °F 94% 29.82 in 3 mi NE 3.5 mph - - Rain Light Rain
5:00 AM 75.2 °F - 75.2 °F 100% 29.80 in 3.1 mi NE 3.5 mph - N/A Rain Light Rain
5:30 AM 75.2 °F - 75.2 °F 100% 29.83 in 3.1 mi North 4.6 mph - N/A Rain Light Rain
6:00 AM 75.2 °F - 75.2 °F 100% 29.83 in 3.7 mi NNE 5.8 mph - N/A Rain Light Rain
6:30 AM 75.2 °F - 75.2 °F 100% 29.83 in 4.3 mi East 3.5 mph - N/A Rain Light Rain
7:00 AM 77.0 °F - 75.2 °F 94% 29.83 in 5.0 mi East 5.8 mph - N/A   Scattered Clouds
7:30 AM 77.0 °F - 75.2 °F 94% 29.86 in 5.6 mi ESE 5.8 mph - N/A   Partly Cloudy
8:00 AM 78 °F - 75 °F 89% 29.88 in 6 mi ESE 2.3 mph - -   Partly Cloudy
8:00 AM 78.8 °F - 75.2 °F 89% 29.86 in 5.6 mi ESE 3.5 mph - N/A   Partly Cloudy
8:30 AM 78.8 °F - 77.0 °F 94% 29.89 in 5.6 mi ESE 3.5 mph - N/A   Partly Cloudy
9:00 AM 80.6 °F 87.1 °F 77.0 °F 89% 29.89 in 5.6 mi East 3.5 mph - N/A   Partly Cloudy
9:30 AM 80.6 °F 87.1 °F 77.0 °F 89% 29.89 in 5.6 mi ESE 4.6 mph - N/A   Partly Cloudy
10:00 AM 80.6 °F 87.1 °F 77.0 °F 89% 29.86 in 5.6 mi East 6.9 mph - N/A   Partly Cloudy
10:30 AM 84.2 °F 94.1 °F 77.0 °F 79% 29.86 in 5.6 mi East 6.9 mph - N/A   Partly Cloudy
11:00 AM 85 °F - 77 °F 71% 29.86 in 6 mi North 2.3 mph - -   Scattered Clouds
11:00 AM 86.0 °F 96.9 °F 77.0 °F 74% 29.86 in 5.6 mi NNW 1.2 mph - N/A   Partly Cloudy
11:30 AM 86.0 °F 99.3 °F 78.8 °F 79% 29.83 in 5.6 mi East 2.3 mph - N/A   Partly Cloudy
12:00 PM 86.0 °F 95.1 °F 75.2 °F 70% 29.83 in 5.0 mi SW 5.8 mph - N/A   Scattered Clouds
12:12 PM 86.0 °F 96.9 °F 77.0 °F 74% 29.83 in 3.7 mi NNW 8.1 mph - N/A Thunderstorm Thunderstorm
12:14 PM 84.2 °F 90.9 °F 73.4 °F 70% 29.83 in 3.7 mi NW 24.2 mph 38.0 mph N/A Rain , Thunderstorm Light Thunderstorms and Rain
12:20 PM 78.8 °F - 73.4 °F 83% 29.83 in 1.9 mi WNW 21.9 mph 33.4 mph N/A Rain , Thunderstorm Light Thunderstorms and Rain
12:25 PM 75.2 °F - 73.4 °F 94% 29.83 in 0.5 mi WNW 17.3 mph 33.4 mph N/A Rain , Thunderstorm Heavy Thunderstorms and Rain
12:30 PM 75.2 °F - 73.4 °F 94% 29.83 in 0.5 mi WNW 17.3 mph 33.4 mph N/A Rain , Thunderstorm Heavy Thunderstorms and Rain
12:38 PM 75.2 °F - 73.4 °F 94% 29.83 in 1.9 mi West 10.4 mph - N/A Rain , Thunderstorm Light Thunderstorms and Rain
1:00 PM 77.0 °F - 75.2 °F 94% 29.83 in 2.5 mi WNW 13.8 mph - N/A Rain , Thunderstorm Light Thunderstorms and Rain
1:30 PM 77.0 °F - 75.2 °F 94% 29.86 in 3.7 mi West 10.4 mph - N/A Rain Light Rain
2:00 PM 78 °F - 74 °F 86% 29.86 in 3 mi WNW 4.6 mph - - Rain , Thunderstorm Thunderstorms and Rain
2:00 PM 78.8 °F - 75.2 °F 89% 29.86 in 3.1 mi WNW 4.6 mph - N/A Rain Light Rain
2:30 PM 78.8 °F - 75.2 °F 89% 29.83 in 3.7 mi NE 2.3 mph - N/A Rain Light Rain
3:00 PM 78.8 °F - 75.2 °F 89% 29.83 in 3.7 mi South 3.5 mph - N/A Rain Light Rain
3:30 PM 78.8 °F - 75.2 °F 89% 29.80 in 4.3 mi SSE 8.1 mph - N/A   Scattered Clouds
4:00 PM 78.8 °F - 75.2 °F 89% 29.80 in 4.3 mi ESE 3.5 mph - N/A   Scattered Clouds
4:30 PM 78.8 °F - 75.2 °F 89% 29.80 in 4.3 mi ESE 5.8 mph - N/A   Scattered Clouds
5:00 PM 78 °F - 74 °F 82% 29.81 in 4 mi ESE 4.6 mph - -   Partly Cloudy
5:00 PM 78.8 °F - 75.2 °F 89% 29.80 in 4.3 mi ESE 4.6 mph - N/A   Partly Cloudy
5:30 PM 78.8 °F - 75.2 °F 89% 29.80 in 4.3 mi East 4.6 mph - N/A   Partly Cloudy
6:00 PM 77.0 °F - 75.2 °F 94% 29.80 in 4.3 mi East 4.6 mph - N/A   Partly Cloudy
6:30 PM 77.0 °F - 75.2 °F 94% 29.83 in 5.0 mi East 4.6 mph - N/A   Partly Cloudy
7:00 PM 77.0 °F - 73.4 °F 89% 29.83 in 5.0 mi East 3.5 mph - N/A   Partly Cloudy
7:30 PM 77.0 °F - 73.4 °F 89% 29.83 in 5.0 mi ESE 3.5 mph - N/A   Partly Cloudy
8:00 PM 76 °F - 73 °F 88% 29.86 in 5 mi ENE 3.5 mph - -   Scattered Clouds
8:00 PM 77.0 °F - 73.4 °F 89% 29.86 in 5.0 mi ENE 3.5 mph - N/A   Partly Cloudy
8:30 PM 75.2 °F - 73.4 °F 94% 29.86 in 5.0 mi ENE 4.6 mph - N/A   Partly Cloudy
9:00 PM 75.2 °F - 73.4 °F 94% 29.86 in 5.0 mi East 3.5 mph - N/A   Partly Cloudy
9:30 PM 75.2 °F - 73.4 °F 94% 29.89 in 5.0 mi ENE 4.6 mph - N/A   Partly Cloudy
10:00 PM 75.2 °F - 73.4 °F 94% 29.89 in 5.0 mi ENE 2.3 mph - N/A   Partly Cloudy
10:30 PM 75.2 °F - 73.4 °F 94% 29.89 in 5.0 mi East 3.5 mph - N/A   Partly Cloudy
11:00 PM 76 °F - 73 °F 87% 29.88 in 5 mi East 2.3 mph - -   Scattered Clouds
11:00 PM 75.2 °F - 73.4 °F 94% 29.86 in 5.0 mi East 2.3 mph - N/A   Partly Cloudy
11:30 PM 75.2 °F - 73.4 °F 94% 29.86 in 5.0 mi ESE 4.6 mph - N/A   Partly Cloudy